Flag for Greece Weather past 2 weeks in Glyfada, Greece

63 °F

Passing clouds.

Feels Like: 63 °F
Forecast: 60 / 79 °F
Wind: 2 mph from West

Location: Eleftherios Venizelos International Airport

Current Time: Oct 4, 2015 at 11:46:06 PM

Latest Report: Oct 4, 2015 at 10:50 PM

Visibility: N/A

Pressure: 30.15 "Hg

Humidity: 83%

Dew point: 57 °F

Location of GlyfadaLocation

Historic Weather in Glyfada — Graph


Glyfada temperature yesterday

Maximum temperature yesterday: 73 °F (at 12:20 PM)
Minimum temperature yesterday: 59 °F (at 11:50 PM)
Average temperature yesterday: 67 °F

Past Weeks' High & Low Weather Summary

High84 °F (Sep 20, 2:50 PM)94% (Sep 21, 10:50 PM)30.30 "Hg (Sep 21, 10:50 PM)
Low54 °F (Oct 4, 3:50 AM)35% (Sep 20, 2:50 PM)29.68 "Hg (Sep 21, 9:20 AM)
Average70 °F71%29.99 "Hg
* Reported Sep 19 10:20 PM — Oct 4 10:50 PM, Glyfada, Weather by CustomWeather, © 2015

Note: Actual official high and low records may vary slightly from our data, if they occured in-between our weather recording intervals... More about our weather records


Glyfada weather history for previous 24 hours

Time TempWeatherWind HumidityBarometerVisibility
10:50 PM
Sun, Oct 4
63 °FPassing clouds.2 mph83%30.15 "HgN/A
10:20 PM66 °FPassing clouds.1 mph73%30.12 "HgN/A
9:50 PM66 °FPassing clouds.1 mph73%30.12 "HgN/A
9:20 PM66 °FPassing clouds.2 mph73%30.15 "HgN/A
8:50 PM68 °FPassing clouds.3 mph69%30.15 "HgN/A
8:20 PM68 °FPassing clouds.1 mph69%30.15 "HgN/A
7:50 PM68 °FPassing clouds.1 mph69%30.15 "HgN/A
7:20 PM70 °FPassing clouds.5 mph64%30.15 "HgN/A
6:50 PM70 °FPassing clouds.6 mph64%30.15 "HgN/A
6:20 PM72 °FPassing clouds.7 mph61%30.15 "HgN/A
5:50 PM72 °FPassing clouds.6 mph65%30.18 "HgN/A
5:20 PM73 °FPassing clouds.6 mph61%30.18 "HgN/A
4:50 PM73 °FPassing clouds.7 mph61%30.18 "HgN/A
4:20 PM73 °FPassing clouds.8 mph61%30.18 "HgN/A
3:50 PM73 °FPassing clouds.8 mph61%30.18 "HgN/A
3:20 PM73 °FPassing clouds.8 mph61%30.18 "HgN/A
2:50 PM75 °FPassing clouds.9 mph54%30.18 "HgN/A
2:20 PM75 °FPassing clouds.10 mph50%30.18 "HgN/A
1:50 PM73 °FPassing clouds.7 mph53%30.21 "HgN/A
1:20 PM75 °FPassing clouds.10 mph47%30.21 "HgN/A
12:50 PM73 °FPassing clouds.12 mph50%30.21 "HgN/A
12:20 PM73 °FPassing clouds.10 mph50%30.21 "HgN/A
11:50 AM73 °FPassing clouds.8 mph50%30.21 "HgN/A
11:20 AM73 °FPassing clouds.10 mph50%30.24 "HgN/A
10:50 AM73 °FPassing clouds.9 mph50%30.24 "HgN/A
10:20 AM72 °FPassing clouds.8 mph53%30.24 "HgN/A
9:50 AM70 °FPassing clouds.6 mph60%30.24 "HgN/A
9:20 AM66 °FPassing clouds.3 mph68%30.24 "HgN/A
8:50 AM63 °FPassing clouds.No wind77%30.24 "HgN/A
8:20 AM61 °FPassing clouds.2 mph77%30.24 "HgN/A
7:50 AM57 °FPassing clouds.3 mph77%30.24 "HgN/A
7:20 AM57 °FPassing clouds.2 mph72%30.24 "HgN/A
6:50 AM55 °FPassing clouds.No wind77%30.24 "HgN/A
6:20 AM54 °FPassing clouds.2 mph88%30.24 "HgN/A
5:50 AM55 °FPassing clouds.3 mph88%30.24 "HgN/A
5:20 AM54 °FPassing clouds.2 mph88%30.24 "HgN/A
4:50 AM54 °FClear.3 mph88%30.24 "Hg10 mi
4:20 AM54 °FClear.3 mph88%30.24 "Hg10 mi
3:50 AM54 °FClear.1 mph88%30.24 "Hg10 mi
3:20 AM55 °FClear.2 mph82%30.24 "Hg10 mi
2:50 AM55 °FClear.2 mph88%30.24 "Hg10 mi
2:20 AM55 °FClear.1 mph88%30.24 "Hg10 mi
1:50 AM57 °FClear.3 mph82%30.24 "Hg10 mi
1:20 AM57 °FClear.3 mph82%30.24 "Hg10 mi
12:50 AM57 °FClear.5 mph82%30.27 "Hg10 mi
12:20 AM57 °FClear.3 mph88%30.27 "Hg10 mi
11:50 PM
Sat, Oct 3
59 °FClear.3 mph88%30.27 "Hg10 mi
11:20 PM61 °FPassing clouds.5 mph77%30.27 "HgN/A
Weather by CustomWeather, © 2015

See weather overviewHow to use our weather pages